This demonstration page uses our WeatherBlox Daily Observations layout. Learn more.

Left ArrowRight Arrow

36.17497, -115.13722

Hourly Observations for April 21, 2020

Temp ( °F °C ) Dew Point ( °F °C ) Humidity (%) Winds ( mph kmh ) Pressure ( in mb ) Visibility ( mi km ) Precip ( " mm )
12:53 am 00:53 Cloudy 62 16.7 42 5.6 48 48 N 9 15 29.93 1014 10 16 N/A
1:53 am 01:53 Mostly Clear 62 16.7 42 5.6 48 48 NNW 12 19 29.92 1013 10 16 N/A
2:53 am 02:53 Mostly Cloudy 61 16.1 42 5.6 50 50 NNW 12 19 29.92 1013 10 16 N/A
3:53 am 03:53 Cloudy with Light Rain 62 16.7 43 6.1 50 50 NW 9 15 29.93 1014 10 16 0.00 0.00
4:53 am 04:53 Partly Cloudy 60 15.6 42 5.6 52 52 NW 9 15 29.95 1014 10 16 0.00 0.00
5:53 am 05:53 Cloudy 61 16.1 43 6.1 52 52 NNW 8 13 29.96 1015 10 16 N/A
6:53 am 06:53 Partly Cloudy 60 15.6 43 6.1 53 53 NNW 7 11 29.98 1015 10 16 N/A
7:53 am 07:53 Cloudy with Light Rain 61 16.1 47 8.3 60 60 WNW 9 15 30.01 1016 10 16 0.00 0.00
8:53 am 08:53 Partly Cloudy 67 19.4 44 6.7 44 44 N 9 15 30.02 1017 10 16 0.00 0.00
9:53 am 09:53 Sunny 69 20.6 42 5.6 38 38 NE 12 19 30.03 1017 10 16 N/A
10:53 am 10:53 Sunny 69 20.6 43 6.1 39 39 E 5 7 30.04 1017 10 16 N/A
11:53 am 11:53 Sunny 72 22.2 42 5.6 34 34 VRB 5 7 30.02 1017 10 16 N/A
12:53 pm 12:53 Mostly Sunny 74 23.3 41 5 31 31 NE 7 11 30.00 1016 10 16 N/A
1:53 pm 13:53 Partly Cloudy 77 25 40 4.4 26 26 VRB 5 7 29.98 1015 10 16 N/A
2:53 pm 14:53 Mostly Cloudy 79 26.1 36 2.2 21 21 W 7 11 29.96 1015 10 16 N/A
3:53 pm 15:53 Mostly Sunny 77 25 37 2.8 24 24 ESE 3 6 29.95 1014 10 16 N/A
4:53 pm 16:53 Partly Cloudy 80 26.7 38 3.3 22 22 NNW 20 31 29.95 1014 10 16 N/A
5:37 pm 17:37 Mostly Cloudy 74 23.3 45 7.2 36 36 NE 23 37 29.88 1012 10 16 N/A
5:53 pm 17:53 Cloudy 73 22.8 44 6.7 35 35 NNE 10 17 29.99 1016 10 16 N/A
6:53 pm 18:53 Sunny 73 22.8 43 6.1 34 34 ESE 6 9 29.99 1016 10 16 N/A
7:53 pm 19:53 Clear 72 22.2 43 6.1 35 35 N N/A 30.01 1016 10 16 N/A
8:53 pm 20:53 Clear 71 21.7 43 6.1 36 36 N N/A 30.03 1017 10 16 N/A
9:53 pm 21:53 Clear 70 21.1 43 6.1 38 38 W 5 7 30.04 1017 10 16 N/A
10:53 pm 22:53 Clear 69 20.6 40 4.4 35 35 N N/A 30.04 1017 10 16 N/A
11:53 pm 23:53 Clear 67 19.4 36 2.2 32 32 NNW 8 13 30.05 1018 10 16 N/A

Powered by AerisWeather